www.pogodaiklimat.ru

Погода и климат >> Архив погоды >> Украина >> Львов


АРХИВ ПОГОДЫ в Львове

Время (UTC), дата Ветер
(напр.,м/с)
 
Видим.   Явления Облачность Т
(С)
Тd
(С)
f
(%)
Тe
(С)
Тes
(С)
Комфортность P
(гПа)
Po
(гПа)
Тmin
(С)
Tmax
(С)
R
(мм)
R24
(мм)
S
(см)
12 12.12 З 1 9000 м дымка 9/6 1110 м
[Sc Ac trans]
-0.1 -1.8 88 -2 -2 по сезону 1018.6 978.4
15 12.12 СЗ 2 6000 м дымка 10/8 240 м
[St Ac As]
+0.1 -1.3 90 -4 -4 по сезону 1019.2 979.1
18 12.12 С 3 2200 м слабый снег 10/8 150 м
[Frnb As op]
-0.4 -1.3 94 -5 -5 по сезону 1019.7 979.5 +0.5 0.5
21 12.12 СЗ 2 2800 м слабый снег 10/8 150 м
[Frnb As op]
-1.0 -1.7 95 -5 -5 по сезону 1020.2 979.9
00 13.12 СЗ 3 2300 м слабый снег 10/8 150 м
[Frnb As op]
-1.0 -1.7 95 -6 -6 по сезону 1019.9 979.6
03 13.12 СЗ 3 4200 м слабый снег 10/8 180 м
[Frnb As op]
-0.9 -1.6 95 -6 -6 по сезону 1019.7 979.4
06 13.12 СЗ 4 6000 м слабый снег 10/8 150 м
[Frnb As op]
-0.8 -1.8 93 -7 -7 по сезону 1019.3 979.1 -1.2 3 4
09 13.12 СЗ 3 3100 м слабый снег 10/8 180 м
[Frnb As op]
-0.2 -1.1 94 -5 -5 по сезону 1019.7 979.5
12 13.12 С 3 7000 м слабый снег 10/8 330 м
[Frnb As op]
-0.2 -1.6 90 -5 -5 по сезону 1019.6 979.4
15 13.12 СЗ 3 7000 м слабый снег 10/8 270 м
[Frnb As op]
-1.1 -2.7 89 -6 -6 по сезону 1020.4 980.1
18 13.12 СЗ 2 4100 м слабый снег 10/8 210 м
[Frnb As op]
-1.4 -2.5 92 -5 -5 по сезону 1020.8 980.4 +0.1 3
21 13.12 СЗ 3 6000 м слабый снег 10/8 150 м
[Frnb As op]
-1.8 -2.9 92 -7 -7 по сезону 1021.7 981.2
00 14.12 СЗ 2 8000 м слабый снег 10/8 330 м
[Frnb As op]
-2.0 -3.5 89 -6 -6 по сезону 1022.2 981.7
03 14.12 СЗ 2 9000 м слабый снег 10/8 240 м
[Frnb As op]
-2.1 -3.3 91 -6 -6 по сезону 1022.8 982.2
06 14.12 СЗ 2 9000 м слабый снег 10/8 210 м
[Frnb As op]
-2.1 -3.3 91 -6 -6 по сезону 1023.6 983.0 -2.2 2 9
09 14.12 С 1 10 км слабый снег 10/8 210 м
[Frnb As op]
-1.4 -3.1 88 -4 -3 по сезону 1024.6 984.0
12 14.12 С 1 8000 м слабый снег 10/8 270 м
[Frnb As op]
-1.0 -3.2 85 -3 -3 по сезону 1025.0 984.5
15 14.12 штиль 0 8000 м слабый снег 10/8 180 м
[Frnb As op]
-1.0 -2.6 89 -2 -2 по сезону 1026.1 985.5
18 14.12 В 1 9000 м в посл. час снег 10/8 210 м
[Frnb As op]
-1.1 -2.4 91 -3 -3 по сезону 1026.8 986.2 -0.8 0.3
21 14.12 В 2 10 км 10/10 630 м
[Sc]
-1.3 -2.6 91 -5 -5 по сезону 1027.4 986.8
00 15.12 В 3 10 км 10/10 1050 м
[Sc]
-1.9 -3.7 87 -7 -7 по сезону 1027.2 986.5
03 15.12 В 2 10 км 10/10 1080 м
[Sc]
-2.9 -4.2 91 -7 -7 по сезону 1027.4 986.5
06 15.12 СВ 2 10 км {снег} 10/10 960 м
[Sc]
-3.0 -4.3 91 -7 -7 по сезону 1027.8 986.9 -3.2 0.0 9
09 15.12 В 3 10 км 10/10 210 м
[St]
-2.5 -4.1 89 -8 -8 по сезону 1028.3 987.4
12 15.12 В 4 10 км 10/10 480 м
[Sc]
-1.8 -4.9 79 -8 -8 прохладно 1027.0 986.3
15 15.12 В 4 10 км 10/10 450 м
[Sc]
-2.2 -3.4 91 -8 -8 по сезону 1026.4 985.7
18 15.12 В 4 3800 м слабый снег 10/8 240 м
[Frnb As op]
-2.4 -3.3 94 -9 -9 по сезону 1025.8 985.1 -1.7 1
21 15.12 В 4 3600 м слабый снег 10/8 240 м
[Frnb As op]
-2.4 -3.6 91 -8 -8 по сезону 1024.6 983.9
00 16.12 В 4 4000 м слабый снег 10/8 270 м
[Frnb As op]
-2.6 -4.2 89 -9 -9 по сезону 1022.9 982.2
03 16.12 ЮВ 4 10 км слабый снег 10/0 400 м
[As op]
-2.6 -4.5 87 -9 -9 по сезону 1021.8 981.2
06 16.12 ЮВ 7 10 км {снег} 10/0 400 м
[As op]
-2.7 -5.3 82 -10 -10 прохладно 1021.5 980.9 -2.8 4 10
09 16.12 ЮВ 4 2100 м слабый снег 10/8 330 м
[Frnb As op]
-2.9 -4.5 89 -9 -9 прохладно 1022.2 981.5
12 16.12 ЮВ 6 3900 м слабый снег 10/8 270 м
[Frnb As op]
-2.4 -3.6 91 -10 -10 холодно 1021.1 980.5
15 16.12 ЮВ 5 9000 м слабый снег 10/8 270 м
[Frnb As op]
-2.1 -3.3 91 -9 -9 прохладно 1021.6 981.1
18 16.12 ЮВ 6 4600 м слабый снег 10/8 210 м
[Frnb As op]
-2.0 -3.2 91 -9 -9 по сезону 1022.0 981.5 -2.0 4
21 16.12 ЮВ 5 1900 м снег 10/8 210 м
[Frnb As op]
-2.0 -2.9 94 -9 -9 по сезону 1022.7 982.1
00 17.12 ЮВ 4 9000 м слабый снег 10/8 240 м
[Frnb As op]
-2.0 -2.9 94 -8 -8 по сезону 1022.0 981.5
03 17.12 ЮВ 4 9000 м слабый снег 10/8 240 м
[Frnb As op]
-2.1 -3.0 94 -8 -8 по сезону 1021.6 981.1
06 17.12 ЮВ 4 6000 м слабый снег 10/8 270 м
[Frnb As op]
-2.2 -3.1 94 -8 -8 по сезону 1021.8 981.2 -2.3 4 13
09 17.12 ЮВ 4 3400 м слабый снег 10/8 240 м
[Frnb As op]
-2.4 -3.3 94 -9 -9 прохладно 1022.8 982.2
12 17.12 штиль 0 3300 м слабый снег 10/8 120 м
[Frnb As op]
-1.6 -2.7 92 -3 -3 по сезону 1022.7 982.2
15 17.12 штиль 0 3300 м слабый снег 10/8 120 м
[Frnb As op]
-2.4 -3.6 91 -4 -4 по сезону 1024.3 983.6
18 17.12 З 1 6000 м в посл. час снег 10/8 240 м
[Frnb As op]
-2.6 -3.9 91 -5 -5 по сезону 1026.1 985.3 -1.5 6
21 17.12 З 1 6000 м дымка 9/9 800 м
[Sc]
-4.2 -5.4 91 -7 -7 по сезону 1027.5 986.4
00 18.12 штиль 0 5000 м дымка 10/10 600 м
[Sc]
-4.2 -5.4 91 -5 -5 по сезону 1028.3 987.2
03 18.12 штиль 0 5000 м дымка 10/10 570 м
[Sc]
-4.0 -5.5 89 -5 -5 по сезону 1028.9 987.8
06 18.12 штиль 0 3100 м дымка 10/10 540 м
[Sc]
-4.3 -5.5 91 -5 -5 по сезону 1029.8 988.6 -4.5 18
09 18.12 штиль 0 4100 м дымка 10/10 540 м
[Sc]
-3.4 -4.5 92 -5 -5 по сезону 1031.0 989.9
12 18.12 З 1 5000 м дымка 10/10 500 м
[Sc]
-2.8 -3.8 93 -5 -5 по сезону 1030.5 989.5
15 18.12 С 1 8000 м дымка 10/10 400 м
[Sc]
-2.7 -4.6 87 -5 -5 по сезону 1031.2 990.2
18 18.12 штиль 0 8000 м дымка 10/10 330 м
[St]
-3.3 -5.4 85 -4 -4 по сезону 1032.2 991.0 -2.5
21 18.12 штиль 0 9000 м дымка 10/10 300 м
[St]
-3.7 -6.2 83 -5 -5 по сезону 1032.6 991.4
00 19.12 ЮВ 1 9000 м дымка 10/10 300 м
[St]
-4.2 -6.5 84 -6 -6 по сезону 1032.4 991.1
03 19.12 ЮВ 2 7000 м дымка 10/10 270 м
[St]
-4.6 -7.0 83 -9 -9 по сезону 1031.9 990.6
06 19.12 ЮВ 3 10 км 10/10 270 м
[St]
-5.0 -7.8 81 -10 -10 по сезону 1032.1 990.7 -5.2 15

 

Местоположение метеостанции Львов (Львовская область, Украина): широта 49.82 долгота 23.95 высота над уровнем моря 323 м.

В архиве по умолчанию представлена погода в Львове за последнюю неделю. Архивные данные за месяц целиком и за предыдущие месяцы, начиная с января 2011 года, Вы можете получить, выбрав интересующий диапазон дат из раскрывающегося списка и нажав кнопку "Ввод!".


*Определитесь, кто Вы:
робот инопланетянин человек

Внимание! Время в таблицах - всемирное. Для получения местного времени необходимо прибавить поправку, которая в Львове равна 2 ч.

Смотрите также архив погоды в соседних городах и на ближайших метеорологических станциях:

Погода в Каменке-Бугской (Львовская область, Украина) (42 км)
Погода в Яворове (Львовская область, Украина) (43 км)
Погода в Межгорье (Закарпатская область, Украина) (48 км)
Погода в Раве-Русской (Львовская область, Украина) (53 км)
Погода в Мостиске (Львовская область, Украина) (57 км)
Погода в Дрогобыче (Львовская область, Украина) (61 км)
Погода в Стрые (Львовская область, Украина) (64 км)
Погода в Славском (Львовская область, Украина) (84 км)
Погода в Бережанах (Львовская область, Украина) (84 км)
Погода в Przemysl (Польша) (86 км)

Пояснения к столбцам:

Ветер - указаны скорость ветра в м/с - средняя за 10 мин, порывы в срок и между сроками (в фигурных скобках) и направление, откуда дует ветер: С - северный, СВ - северо-восточный, В - восточный, ЮВ - юго-восточный, Ю - южный, ЮЗ - юго-западный, З - западный, СЗ - северо-западный.
Видимость - горизонтальная дальность видимости в метрах или километрах. При видимости от 1 до 10 км при отсутствии осадков обычно наблюдается дымка, при ухудшении видимости до 1 км и менее - туман. В сухую погоду видимость может ухудшаться дымом, пылью или мглою.
Явления - указаны атмосферные явления, наблюдавшиеся в срок или в последний час перед сроком; фигурными скобками обозначены явления, наблюдавшиеся между сроками (за 1-3 часа до срока); квадратными скобками обозначены град или гололедные отложения с указанием их диаметра в мм.
Облачность - указаны через наклонную черту общая и нижняя облачность в баллах и высота нижней границы облаков в метрах; квадратными скобками обозначены формы облаков: Ci - перистые, Cs - перисто-слоистые, Cc - перисто-кучевые, Ac - высококучевые, As - высокослоистые, Sc - слоисто-кучевые, Ns - слоисто-дождевые, Cu - кучевые, Cb - кучево-дождевые. Подробнее классификацию облаков см. в Атласе облаков (PDF).
T - Температура воздуха - температура, измеренная на высоте 2 м над землей.
Td - Температура точки росы - температура, при понижении до которой содержащийся в воздухе водяной пар достигнет насыщения.
f - Относительная влажность воздуха - влажноcть воздуха, измеренная на высоте 2 м над землей.
Te - Эффективная температура - температура, которую ощущает одетый по сезону человек в тени. Характеристика душности погоды. При расчете учитывается влияние влажности воздуха и скорости ветра на теплоощущения человека.
Tes - Эффективная температура на солнце - температура, которую ощущает человек, с поправкой на солнечный нагрев. Характеристика знойности погоды. Зависит от высоты солнца над горизонтом, облачности и скорости ветра. Ночью, в пасмурную погоду, а также при ветре 12 м/с и более поправка равна нулю.
P - Атмосферное давление - приведенное к уровню моря атмосферное давление.
Po - Атмосферное давление - измеренное на уровне метеостанции атмосферное давление.
Tmin - Минимальная температура - минимум температуры воздуха на высоте 2 м над землей.
Tmax - Максимальная температура - максимум температуры воздуха на высоте 2 м над землей.
R - Количество осадков - Количество выпавших осадков за период времени, мм. При наведении курсора мыши на число - период времени, за который выпало указанное количество осадков.
R24 - Количество осадков - Количество выпавших осадков за 24 часа, мм.
S - Снежный покров - Высота снежного покрова, см. При наведении курсора мыши на число - состояние снежного покрова и степень покрытия местности в баллах.